• In Lithuania
  • List of Countries
  • For 7 days
  • Water Temperature
  • Satellite Maps
  • Weather Map
  • Weather Widgets
  • user-avatar
    Login

    Hourly Weather Punakha

    Today, 18 December, Monday

    Time Temperature Precipitation Wind Pressure Humidity
    00:00 +8°C° 0 mm 2 mps 585 mmHg 53%
    01:00 +9°C° 0 mm 1 mps 584 mmHg 51%
    02:00 +9°C° 0 mm 1 mps 584 mmHg 49%
    03:00 +9°C° 0 mm 1 mps 584 mmHg 47%
    04:00 +9°C° 0 mm 1 mps 584 mmHg 46%
    05:00 +8°C° 0 mm 2 mps 584 mmHg 44%
    06:00 +7°C° 0 mm 2 mps 584 mmHg 48%
    07:00 +11°C° 0 mm 1 mps 586 mmHg 42%
    08:00 +13°C° 0 mm 1 mps 587 mmHg 37%
    09:00 +16°C° 0 mm 1 mps 588 mmHg 31%
    10:00 +18°C° 0 mm 1 mps 588 mmHg 30%
    11:00 +20°C° 0 mm 1 mps 588 mmHg 29%
    12:00 +20°C° 0 mm 2 mps 589 mmHg 28%
    13:00 +20°C° 0 mm 2 mps 588 mmHg 31%
    14:00 +19°C° 0 mm 2 mps 588 mmHg 35%
    15:00 +19°C° 0 mm 2 mps 587 mmHg 38%
    16:00 +16°C° 0 mm 2 mps 586 mmHg 48%
    17:00 +13°C° 0 mm 2 mps 585 mmHg 59%
    18:00 +11°C° 0 mm 1 mps 585 mmHg 70%
    19:00 +11°C° 0 mm 1 mps 585 mmHg 62%
    20:00 +10°C° 0 mm 2 mps 585 mmHg 55%
    21:00 +10°C° 0 mm 2 mps 586 mmHg 47%
    22:00 +10°C° 0 mm 2 mps 586 mmHg 43%
    23:00 +9°C° 0 mm 2 mps 586 mmHg 39%

    Tomorrow, 19 December, Tuesday

    Time Temperature Precipitation Wind Pressure Humidity
    00:00 +9°C° 0 mm 2 mps 586 mmHg 35%
    01:00 +9°C° 0 mm 2 mps 586 mmHg 33%
    02:00 +9°C° 0 mm 2 mps 585 mmHg 30%
    03:00 +9°C° 0 mm 2 mps 585 mmHg 28%
    04:00 +9°C° 0 mm 2 mps 585 mmHg 26%
    05:00 +9°C° 0 mm 2 mps 585 mmHg 25%
    06:00 +9°C° 0 mm 2 mps 585 mmHg 23%
    07:00 +12°C° 0 mm 1 mps 587 mmHg 22%
    08:00 +15°C° 0 mm 1 mps 588 mmHg 21%
    09:00 +18°C° 0 mm 1 mps 589 mmHg 19%
    10:00 +19°C° 0 mm 1 mps 590 mmHg 22%
    11:00 +19°C° 0 mm 2 mps 590 mmHg 24%
    12:00 +20°C° 0 mm 2 mps 590 mmHg 26%
    13:00 +19°C° 0 mm 2 mps 589 mmHg 32%
    14:00 +19°C° 0 mm 2 mps 588 mmHg 38%
    15:00 +18°C° 0 mm 2 mps 587 mmHg 44%
    16:00 +16°C° 0 mm 2 mps 587 mmHg 55%
    17:00 +14°C° 0 mm 1 mps 586 mmHg 66%
    18:00 +12°C° 0 mm 1 mps 586 mmHg 77%
    19:00 +12°C° 0 mm 1 mps 586 mmHg 73%
    20:00 +12°C° 0 mm 1 mps 586 mmHg 68%
    21:00 +11°C° 0 mm 1 mps 587 mmHg 64%
    22:00 +11°C° 0 mm 1 mps 587 mmHg 62%
    23:00 +11°C° 0 mm 1 mps 586 mmHg 60%

    Day after tomorrow, 20 December, Wednesday

    Time Temperature Precipitation Wind Pressure Humidity
    00:00 +11°C° 0 mm 1 mps 586 mmHg 59%
    01:00 +11°C° 0 mm 1 mps 586 mmHg 57%
    02:00 +10°C° 0 mm 1 mps 586 mmHg 55%
    03:00 +10°C° 0 mm 1 mps 586 mmHg 54%
    04:00 +10°C° 0 mm 1 mps 586 mmHg 53%
    05:00 +10°C° 0 mm 1 mps 586 mmHg 52%
    06:00 +10°C° 0 mm 1 mps 585 mmHg 52%
    07:00 +12°C° 0 mm 1 mps 587 mmHg 48%
    08:00 +14°C° 0 mm 1 mps 588 mmHg 44%
    09:00 +16°C° 0 mm 1 mps 590 mmHg 40%
    10:00 +17°C° 0 mm 2 mps 590 mmHg 40%
    11:00 +18°C° 0 mm 2 mps 590 mmHg 40%
    12:00 +19°C° 0 mm 3 mps 590 mmHg 40%
    13:00 +19°C° 0 mm 3 mps 589 mmHg 43%
    14:00 +18°C° 0 mm 3 mps 588 mmHg 47%
    15:00 +18°C° 0 mm 2 mps 587 mmHg 51%
    16:00 +16°C° 0 mm 2 mps 587 mmHg 62%
    17:00 +13°C° 0 mm 1 mps 586 mmHg 72%
    18:00 +11°C° 0 mm 1 mps 586 mmHg 83%
    19:00 +11°C° 0 mm 1 mps 586 mmHg 81%
    20:00 +11°C° 0 mm 1 mps 586 mmHg 78%
    21:00 +10°C° 0 mm 1 mps 587 mmHg 75%
    22:00 +10°C° 0 mm 1 mps 586 mmHg 73%
    23:00 +10°C° 0 mm 1 mps 586 mmHg 72%

    21 December, Thursday

    Time Temperature Precipitation Wind Pressure Humidity
    00:00 +10°C° 0 mm 1 mps 586 mmHg 70%
    01:00 +10°C° 0 mm 1 mps 586 mmHg 69%
    02:00 +10°C° 0 mm 1 mps 585 mmHg 68%
    03:00 +9°C° 0 mm 1 mps 585 mmHg 67%
    04:00 +9°C° 0 mm 1 mps 585 mmHg 66%
    05:00 +9°C° 0 mm 1 mps 585 mmHg 65%
    06:00 +9°C° 0 mm 1 mps 585 mmHg 64%
    07:00 +11°C° 0 mm 1 mps 586 mmHg 58%
    08:00 +13°C° 0 mm 1 mps 587 mmHg 52%
    09:00 +15°C° 0 mm 1 mps 589 mmHg 47%
    10:00 +16°C° 0 mm 2 mps 589 mmHg 44%
    11:00 +18°C° 0 mm 2 mps 589 mmHg 42%
    12:00 +19°C° 0 mm 2 mps 588 mmHg 39%
    13:00 +18°C° 0 mm 2 mps 588 mmHg 42%
    14:00 +18°C° 0 mm 2 mps 587 mmHg 45%
    15:00 +18°C° 0 mm 2 mps 586 mmHg 47%
    16:00 +15°C° 0 mm 2 mps 585 mmHg 60%
    17:00 +13°C° 0 mm 2 mps 585 mmHg 72%
    18:00 +10°C° 0 mm 1 mps 584 mmHg 85%
    19:00 +10°C° 0 mm 1 mps 584 mmHg 81%
    20:00 +10°C° 0 mm 1 mps 584 mmHg 77%
    21:00 +10°C° 0 mm 1 mps 585 mmHg 73%
    22:00 +10°C° 0 mm 1 mps 585 mmHg 71%
    23:00 +10°C° 0 mm 1 mps 584 mmHg 68%

    22 December, Friday

    Time Temperature Precipitation Wind Pressure Humidity
    00:00 +9°C° 0 mm 1 mps 584 mmHg 65%
    01:00 +9°C° 0 mm 1 mps 584 mmHg 64%
    02:00 +9°C° 0 mm 1 mps 583 mmHg 63%
    03:00 +9°C° 0 mm 1 mps 583 mmHg 62%
    04:00 +9°C° 0 mm 1 mps 583 mmHg 61%
    05:00 +9°C° 0 mm 1 mps 583 mmHg 60%
    06:00 +9°C° 0 mm 1 mps 583 mmHg 59%
    07:00 +11°C° 0 mm 1 mps 584 mmHg 53%
    08:00 +13°C° 0 mm 1 mps 585 mmHg 47%
    09:00 +15°C° 0 mm 2 mps 587 mmHg 41%
    10:00 +16°C° 0 mm 2 mps 587 mmHg 39%
    11:00 +18°C° 0 mm 2 mps 587 mmHg 37%
    12:00 +19°C° 0 mm 3 mps 586 mmHg 35%
    13:00 +19°C° 0 mm 3 mps 586 mmHg 37%
    14:00 +18°C° 0 mm 3 mps 585 mmHg 40%
    15:00 +18°C° 0 mm 2 mps 584 mmHg 42%
    16:00 +16°C° 0 mm 2 mps 584 mmHg 55%
    17:00 +13°C° 0 mm 2 mps 583 mmHg 68%
    18:00 +10°C° 0 mm 1 mps 582 mmHg 81%
    19:00 +10°C° 0 mm 1 mps 582 mmHg 76%
    20:00 +10°C° 0 mm 1 mps 583 mmHg 72%
    21:00 +10°C° 0 mm 1 mps 583 mmHg 67%
    22:00 +10°C° 0 mm 1 mps 583 mmHg 65%
    23:00 +10°C° 0 mm 1 mps 583 mmHg 64%

    23 December, Saturday

    Time Temperature Precipitation Wind Pressure Humidity
    00:00 +10°C° 0 mm 1 mps 582 mmHg 62%
    01:00 +9°C° 0 mm 1 mps 582 mmHg 61%
    02:00 +9°C° 0 mm 1 mps 582 mmHg 61%
    03:00 +9°C° 0 mm 1 mps 582 mmHg 60%
    04:00 +9°C° 0 mm 1 mps 582 mmHg 59%
    05:00 +9°C° 0 mm 1 mps 581 mmHg 57%
    06:00 +9°C° 0 mm 1 mps 581 mmHg 56%
    07:00 +11°C° 0 mm 1 mps 583 mmHg 50%
    08:00 +13°C° 0 mm 1 mps 584 mmHg 44%
    09:00 +15°C° 0 mm 1 mps 585 mmHg 38%
    10:00 +18°C° 0 mm 1 mps 585 mmHg 36%
    11:00 +18°C° 0 mm 2 mps 585 mmHg 34%
    12:00 +19°C° 0 mm 2 mps 585 mmHg 32%
    13:00 +19°C° 0 mm 2 mps 585 mmHg 35%
    14:00 +18°C° 0 mm 2 mps 584 mmHg 38%
    15:00 +18°C° 0 mm 3 mps 584 mmHg 41%
    16:00 +15°C° 0 mm 2 mps 583 mmHg 54%
    17:00 +13°C° 0 mm 2 mps 582 mmHg 67%
    18:00 +10°C° 0 mm 1 mps 581 mmHg 80%
    19:00 +10°C° 0 mm 1 mps 582 mmHg 76%
    20:00 +10°C° 0 mm 1 mps 582 mmHg 71%
    21:00 +10°C° 0 mm 1 mps 582 mmHg 66%
    22:00 +10°C° 0 mm 1 mps 582 mmHg 63%
    23:00 +10°C° 0 mm 1 mps 582 mmHg 61%
    Show more